Location: Chuathbaluk
(61.5726°N, 159.2454°W)
Time: 05:03:42
(UTC+00:00)

Transit 4A - Pass Details

Date: 26 November 2020
Orbit: 864 x 980 km, 66.8° (Epoch: 26 January)

Event Time Altitude Azimuth Distance (km) Brightness Sun altitude
Rises 23:04:29 0° 272° (W) 3,679 11.1 6.9°
Reaches altitude 10° 23:07:07 10° 277° (W) 2,737 10.4 6.8°
Maximum altitude 23:13:26 55° 355° (N) 1,172 8.3 6.7°
Drops below altitude 10° 23:19:43 10° 73° (ENE) 2,727 10.1 6.5°
Sets 23:22:20 0° 78° (ENE) 3,664 10.7 6.5°
